Theta_e
316 318 318 318 316 320 320 321 322 323 322 321 320 319 317 315 315 315 315 315 315 315 315 314 314 314 314 317 318 318 318 317 313 310 310 310 308 309 309 309 310 310 309
315 314 316 317 317 318 318 320 319 317 316 315 314 313 313 312 312 312 311 310 310 309 309 309 309 309 310 311 311 312 312 314 311 309 308 309 309 310 310 312 312 311 311
314 314 313 315 317 313 318 318 316 312 311 309 309 309 309 309 309 308 308 307 306 306 306 306 307 307 309 308 308 309 310 309 309 308 308 308 310 310 311 312 311 311 311
312 312 312 313 316 316 316 313 310 308 307 307 307 307 308 307 307 307 306 305 305 305 304 304 305 306 308 308 309 309 309 310 310 309 310 311 310 310 312 312 313 312 311
311 310 311 312 313 316 311 309 306 305 305 305 305 305 306 305 305 305 305 304 304 304 305 305 306 306 307 308 308 308 307 308 308 309 311 310 310 311 313 313 314 310 308
310 310 310 312 314 310 307 305 304 304 304 304 304 303 304 304 304 304 304 304 303 303 303 303 305 306 306 305 306 308 307 308 308 309 310 311 310 310 309 310 311 308 308
310 310 311 313 310 305 304 303 302 302 302 302 302 302 302 301 301 302 302 302 302 302 302 303 303 304 305 307 309 310 310 309 310 310 309 309 308 309 310 310 310 309 308
309 309 311 309 305 303 302 301 301 301 301 301 301 301 302 301 302 301 301 301 303 304 303 303 304 305 305 306 309 309 308 307 306 305 304 303 303 304 307 308 309 307 305
309 310 308 305 303 301 300 300 300 300 301 301 301 301 301 302 302 303 304 304 305 305 304 305 306 307 307 307 307 306 304 303 305 305 304 304 302 302 303 307 307 307 306
309 306 304 302 301 300 300 300 299 300 301 302 303 303 303 302 301 303 304 305 305 305 305 304 305 305 309 308 307 307 306 304 305 306 306 304 301 301 300 302 303 304 305
306 303 301 300 300 299 299 299 300 302 304 304 304 304 303 303 303 304 305 305 305 305 304 303 303 305 305 306 307 306 307 308 307 305 303 302 300 299 298 298 298 299 299
302 300 300 300 299 299 300 301 303 305 305 305 304 304 303 303 304 305 305 305 304 304 303 304 303 306 307 306 306 307 307 305 304 304 304 302 299 298 297 297 297 297 298
300 300 300 300 300 301 304 305 306 306 306 305 305 304 304 305 305 304 304 304 305 305 305 305 305 306 306 306 307 307 306 305 305 303 303 301 299 299 299 297 296 297 297
300 300 301 300 301 304 303 304 304 305 305 304 304 304 305 304 305 305 305 305 305 306 306 306 307 307 307 306 305 306 305 304 303 302 301 300 299 299 298 298 297 296 295
300 301 301 302 302 301 301 301 300 302 303 303 303 303 303 302 301 304 305 305 305 306 306 306 306 306 307 306 304 303 304 302 300 300 299 299 298 298 297 297 297 297 297
301 301 304 304 303 301 300 299 300 301 301 301 301 302 302 301 302 303 303 304 305 306 306 306 305 305 306 305 304 303 301 300 300 299 298 297 297 297 297 297 297 296 296
302 303 304 304 303 303 302 302 301 301 301 301 301 301 301 302 303 303 303 304 305 305 305 305 305 304 305 304 302 301 300 299 299 298 297 297 297 297 297 297 296 296 295
303 306 305 305 304 304 303 303 303 302 302 301 300 300 301 301 302 303 304 304 305 304 304 304 304 304 305 304 302 301 301 300 298 297 297 296 296 297 298 297 296 296 295
305 306 305 305 305 305 304 303 303 302 302 301 301 301 301 301 302 303 304 304 304 304 304 304 304 304 304 304 302 300 300 300 300 298 298 298 298 298 298 296 295 295 295
306 305 305 305 305 305 306 305 304 301 300 300 300 300 300 302 302 303 303 303 303 303 304 303 303 303 303 303 302 302 302 302 300 299 300 300 300 300 300 299 296 296 295
305 305 306 306 306 304 302 300 299 299 299 299 299 300 301 301 301 302 303 303 304 303 303 302 302 303 303 303 302 302 302 302 302 302 302 302 303 303 301 298 297 296 296
306 306 306 304 303 302 301 299 299 299 299 299 299 299 300 300 301 302 302 302 302 302 302 302 302 302 302 303 303 303 303 303 303 303 303 303 304 304 304 300 299 297 297
306 305 303 302 302 302 301 300 300 300 300 299 299 299 299 300 300 300 301 302 301 300 301 301 302 302 302 302 302 303 303 303 303 303 304 304 304 304 304 304 301 300 299
304 303 303 303 302 301 301 300 300 300 300 299 299 299 299 298 298 298 299 299 300 300 300 300 300 300 301 302 302 304 303 303 304 304 304 304 303 303 303 303 303 303 302
304 303 302 302 301 301 301 301 300 300 300 299 299 298 298 297 297 297 297 297 298 298 299 299 299 299 300 301 302 303 303 304 304 304 304 304 304 304 304 304 303 303 303
303 302 302 302 301 301 301 301 300 300 299 299 299 298 298 297 296 295 294 294 294 296 297 298 298 299 300 301 302 302 302 303 302 303 303 303 304 303 303 303 303 303 302
Wind_Speed
17 23 16 21 28 23 18 21 26 25 21 19 17 16 14 12 14 12 11 11 8 8 8 6 5 3 6 9 8 8 10 14 6 8 17 20 13 12 9 7 10 8 8
14 15 21 15 20 23 19 16 24 23 18 15 13 12 13 15 14 12 9 9 9 10 9 8 7 7 12 14 15 14 12 9 16 12 19 14 14 11 11 8 10 18 11
25 22 19 24 16 22 15 13 15 15 13 12 11 12 15 14 13 12 11 13 15 16 15 16 13 12 15 15 18 22 17 20 20 23 14 18 16 13 9 7 6 10 6
24 21 22 22 23 16 9 11 10 9 9 11 12 12 14 15 16 17 18 19 21 22 19 18 16 14 14 15 19 19 20 19 20 19 17 15 8 12 12 10 13 7 4
23 23 23 23 25 5 9 10 8 9 10 10 12 17 19 21 19 19 19 18 20 20 19 18 17 14 13 13 15 19 17 19 17 13 11 7 1 4 2 2 14 22 20
20 21 23 23 9 9 11 10 11 13 14 17 18 21 22 20 16 14 15 18 15 16 15 13 13 14 14 11 10 13 14 12 10 5 4 13 12 15 16 13 17 12 3
21 20 22 22 9 12 11 11 12 14 17 18 19 20 20 18 16 16 16 16 15 13 12 12 12 12 9 10 9 15 16 7 8 16 18 18 17 14 9 7 8 17 14
18 20 19 12 12 12 14 13 14 14 15 15 15 16 18 18 19 18 16 16 14 11 10 13 8 8 4 7 8 20 25 23 22 24 26 22 16 10 8 9 4 19 15
15 12 10 9 16 15 16 15 15 15 16 17 17 17 18 16 14 13 6 8 11 13 13 12 9 6 5 7 9 17 19 22 21 23 24 21 21 16 10 10 13 14 10
10 9 8 14 16 18 17 16 15 16 14 15 16 17 15 12 13 13 14 12 11 14 13 13 13 16 16 6 8 12 14 10 13 17 18 20 22 20 18 12 13 14 8
8 11 13 15 19 18 16 16 14 12 10 14 17 15 16 15 15 15 11 10 11 13 13 15 18 20 18 17 18 15 14 11 16 23 21 20 23 24 22 21 18 15 10
13 18 19 19 18 17 17 13 7 10 15 16 19 17 16 16 16 16 16 17 18 19 13 13 16 23 21 16 16 14 14 19 21 20 18 18 20 23 22 21 21 21 21
21 21 21 21 19 14 6 5 8 11 15 16 17 16 17 17 14 15 12 10 12 14 14 13 15 15 18 19 17 15 16 20 19 19 18 18 17 15 13 23 26 27 25
23 24 24 17 9 12 18 19 21 18 17 18 16 15 14 17 18 17 17 15 15 18 14 16 13 16 21 20 20 20 22 21 20 19 19 18 16 17 20 18 19 23 24
23 24 18 13 17 23 24 20 27 25 19 16 16 16 15 13 15 11 13 15 14 13 15 21 23 22 22 23 26 24 21 21 22 20 19 18 18 19 20 21 21 17 21
26 19 12 17 20 21 24 28 28 26 24 22 19 16 15 16 16 15 15 21 15 21 24 21 19 19 19 20 20 20 22 21 18 20 20 20 18 19 19 21 23 20 20
25 16 17 17 20 19 19 20 20 25 23 22 22 21 21 19 15 8 8 18 19 27 23 22 19 21 20 21 21 23 23 21 20 23 22 21 20 20 19 20 20 21 24
16 17 20 18 18 18 18 18 18 17 15 14 18 21 22 21 16 5 16 14 16 21 20 19 20 20 20 22 23 21 20 23 24 23 24 23 21 21 20 21 21 22 23
10 13 19 16 15 15 18 19 18 19 17 17 14 14 17 20 24 26 26 19 19 24 23 22 21 21 22 23 26 27 27 27 26 27 25 25 25 24 26 27 28 26 27
22 22 17 14 17 14 14 18 21 21 22 23 20 17 17 18 21 23 24 23 25 24 24 22 22 22 21 24 25 21 21 23 27 29 24 24 24 21 22 22 23 25 26
24 21 14 15 19 22 21 22 22 20 20 18 17 21 22 23 24 22 24 28 26 24 24 25 26 20 22 25 24 23 23 24 23 26 26 22 19 15 22 26 27 27 28
16 13 20 22 20 19 20 20 19 19 19 19 19 24 24 23 23 25 27 28 30 29 26 24 23 23 24 21 19 23 23 23 20 16 13 15 15 18 24 29 28 31 32
20 21 22 21 18 18 20 21 20 19 20 21 22 23 22 23 24 24 25 27 30 30 28 25 24 24 25 26 23 21 21 21 18 20 18 20 21 20 24 24 24 25 23
22 20 18 17 19 22 23 22 20 20 21 22 22 23 22 23 24 27 27 28 27 26 27 28 28 25 24 26 29 25 21 21 21 20 20 20 22 23 25 25 25 23 19
19 21 20 20 19 19 20 20 20 20 21 21 22 23 23 23 24 25 25 25 27 28 28 26 27 29 28 26 26 23 22 20 19 22 20 23 25 25 24 21 21 23 23
21 21 19 17 19 20 19 19 19 20 21 22 23 23 23 24 25 25 25 24 24 25 25 26 26 31 32 29 26 27 27 24 23 26 27 25 24 24 25 27 28 28 30
Wind_Direction
340 338 350 342 353 2 5 341 353 352 348 2 352 348 352 356 6 0 352 345 350 3 2 14 42 76 88 95 112 123 120 128 114 103 126 155 144 148 175 222 212 213 189
324 335 340 338 341 351 355 355 350 335 342 354 347 350 360 12 14 18 17 18 28 33 31 42 58 99 107 109 111 101 123 151 135 120 127 144 148 173 199 184 234 218 198
342 343 340 333 330 336 349 356 343 332 337 355 0 12 21 22 26 28 37 49 59 61 59 58 60 77 85 99 100 105 102 115 123 130 135 142 166 178 193 181 206 176 204
334 334 327 321 319 331 17 19 2 342 1 16 24 30 46 51 57 62 65 64 65 63 62 65 65 69 64 80 91 99 105 106 118 124 137 140 164 185 199 190 212 208 123
329 323 317 314 321 54 44 26 27 34 39 46 55 67 73 70 67 73 68 67 70 68 69 65 62 58 63 82 104 111 117 118 125 114 99 109 59 251 201 205 172 108 102
321 313 309 311 353 59 48 56 68 70 73 75 69 71 70 64 64 69 70 73 73 71 68 67 73 75 77 70 86 115 129 131 123 99 128 99 67 48 50 49 121 113 99
314 317 312 330 87 69 70 80 79 76 82 80 78 75 71 60 57 64 65 70 72 72 69 72 85 79 84 54 60 78 85 169 98 103 84 66 61 41 40 27 93 110 102
315 321 334 109 86 90 89 87 85 85 78 74 74 76 75 70 59 67 70 81 71 56 87 90 67 26 37 349 52 78 85 82 86 86 79 70 55 48 44 11 285 121 101
327 13 61 76 96 98 95 96 90 84 77 71 67 71 66 42 43 28 20 65 55 57 52 59 61 12 319 125 98 98 92 92 91 85 82 68 53 43 54 74 64 122 96
8 60 72 98 102 100 101 96 97 90 85 71 72 74 62 57 38 33 30 44 63 59 49 46 43 52 66 123 100 90 86 91 96 92 77 67 49 50 59 78 67 60 85
100 94 99 102 105 105 105 108 100 88 70 79 75 64 58 46 30 45 47 60 77 67 65 60 55 50 58 73 90 81 88 114 89 95 80 74 63 53 60 64 75 89 79
101 102 103 108 109 110 106 96 72 74 86 78 67 57 54 59 57 61 69 84 91 85 56 45 62 61 61 68 76 84 100 101 91 86 78 75 77 71 70 75 81 84 82
105 106 112 113 113 103 84 94 98 85 80 77 76 67 55 51 56 76 76 67 59 57 60 57 76 83 80 73 79 83 92 89 85 80 80 81 89 86 76 72 81 85 86
111 117 120 119 88 59 67 75 68 66 68 72 68 64 66 61 63 54 60 58 65 81 81 79 74 73 67 80 78 71 72 81 80 81 81 85 100 90 91 89 82 78 78
117 125 119 99 86 79 76 69 72 70 71 66 59 60 61 50 57 85 87 82 65 86 72 72 70 55 57 64 71 71 68 75 74 77 83 83 80 84 87 93 81 89 85
133 138 124 108 98 92 85 76 76 80 77 71 67 67 51 44 70 91 96 87 88 80 69 64 56 51 52 65 68 57 70 68 74 82 82 81 80 86 84 85 87 75 71
148 144 125 114 110 107 101 88 81 71 69 64 60 55 50 45 57 80 81 63 72 78 73 69 64 54 49 81 70 74 74 71 79 84 83 80 85 85 84 84 82 79 75
155 143 128 128 123 121 116 108 99 92 84 71 70 63 56 59 57 74 105 73 67 76 79 81 82 65 62 75 75 73 68 70 83 83 80 82 83 81 78 83 81 84 83
181 141 129 130 127 126 119 122 127 129 128 123 105 74 56 48 52 54 60 66 68 75 73 72 74 69 69 78 83 83 79 75 83 89 88 88 86 83 81 81 82 84 84
106 118 129 132 135 132 106 84 70 67 60 53 55 63 69 61 54 51 52 59 61 77 71 68 74 76 72 85 86 85 80 79 85 92 95 92 91 92 91 92 87 86 85
130 151 150 116 88 81 83 83 83 83 81 77 64 68 69 63 57 54 53 51 51 71 70 68 60 70 76 81 82 76 83 83 100 100 93 81 80 87 97 99 96 93 94
150 136 98 93 98 101 100 103 104 104 100 93 83 74 71 71 67 62 61 59 57 58 61 69 67 64 64 69 88 86 82 69 81 105 103 93 77 65 101 106 109 107 102
103 100 95 100 112 112 101 93 87 85 83 82 79 74 68 69 67 66 69 67 62 60 58 62 71 64 58 59 67 88 93 83 77 88 90 89 91 75 75 100 125 116 122
104 119 121 109 99 90 87 86 87 87 85 82 80 78 75 73 75 73 69 65 66 66 64 63 64 70 72 70 69 84 85 81 75 80 77 87 89 84 78 76 78 95 139
119 103 101 99 104 108 101 95 90 88 86 85 83 80 78 77 73 71 71 73 71 66 65 66 61 66 71 74 75 80 86 83 80 83 79 78 79 77 79 84 85 81 85
107 107 113 110 102 100 100 98 95 91 87 84 82 81 79 76 74 73 73 72 69 67 66 65 62 69 72 73 79 83 83 83 76 73 78 82 81 81 78 75 73 71 69